When you browse on this site, cookies collect data to enhance your experience and personalize the content and advertising you see.
Visit our Privacy Policy to learn more. By continuing to use the site, you agree to this use of cookies and data.
  • In Lithuania
  • List of Countries
  • For 7 days
  • Water Temperature
  • Satellite Maps
  • Weather Map
  • Weather Widgets
  • user-avatar
    Login

    Hourly Weather La Rioja

    Today, 21 May, Tuesday

    Time Temperature Precipitation Wind Pressure Humidity
    00:00 +13°C° 0 mm 6 mps 717 mmHg 76%
    01:00 +13°C° 0 mm 6 mps 718 mmHg 76%
    02:00 +11°C° 0 mm 6 mps 718 mmHg 75%
    03:00 +10°C° 0.1 mm 6 mps 718 mmHg 75%
    04:00 +10°C° 0.1 mm 5 mps 718 mmHg 75%
    05:00 +10°C° 0.1 mm 5 mps 719 mmHg 75%
    06:00 +9°C° 0 mm 5 mps 719 mmHg 75%
    07:00 +10°C° 0 mm 4 mps 720 mmHg 74%
    08:00 +10°C° 0 mm 4 mps 720 mmHg 73%
    09:00 +9°C° 0 mm 5 mps 720 mmHg 69%
    10:00 +10°C° 0 mm 5 mps 721 mmHg 65%
    11:00 +12°C° 0 mm 5 mps 721 mmHg 61%
    12:00 +12°C° 0 mm 5 mps 720 mmHg 56%
    13:00 +13°C° 0 mm 5 mps 720 mmHg 52%
    14:00 +14°C° 0 mm 5 mps 719 mmHg 47%
    15:00 +14°C° 0 mm 5 mps 719 mmHg 47%
    16:00 +14°C° 0 mm 5 mps 719 mmHg 47%
    17:00 +14°C° 0 mm 5 mps 719 mmHg 48%
    18:00 +12°C° 0 mm 4 mps 720 mmHg 53%
    19:00 +11°C° 0 mm 4 mps 721 mmHg 58%
    20:00 +10°C° 0 mm 4 mps 721 mmHg 63%
    21:00 +9°C° 0 mm 3 mps 721 mmHg 65%
    22:00 +9°C° 0 mm 3 mps 722 mmHg 68%
    23:00 +8°C° 0 mm 3 mps 722 mmHg 71%

    Tomorrow, 22 May, Wednesday

    Time Temperature Precipitation Wind Pressure Humidity
    00:00 +8°C° 0 mm 3 mps 722 mmHg 71%
    01:00 +8°C° 0 mm 3 mps 722 mmHg 72%
    02:00 +8°C° 0 mm 3 mps 722 mmHg 73%
    03:00 +8°C° 0 mm 3 mps 721 mmHg 74%
    04:00 +7°C° 0 mm 3 mps 721 mmHg 74%
    05:00 +7°C° 0 mm 3 mps 721 mmHg 75%
    06:00 +7°C° 0 mm 3 mps 721 mmHg 74%
    07:00 +7°C° 0 mm 3 mps 722 mmHg 73%
    08:00 +7°C° 0 mm 3 mps 722 mmHg 72%
    09:00 +9°C° 0 mm 3 mps 722 mmHg 65%
    10:00 +10°C° 0 mm 2 mps 722 mmHg 58%
    11:00 +13°C° 0 mm 2 mps 722 mmHg 51%
    12:00 +13°C° 0 mm 3 mps 721 mmHg 47%
    13:00 +14°C° 0 mm 3 mps 720 mmHg 44%
    14:00 +14°C° 0 mm 3 mps 720 mmHg 41%
    15:00 +14°C° 0 mm 3 mps 720 mmHg 41%
    16:00 +14°C° 0 mm 3 mps 719 mmHg 41%
    17:00 +15°C° 0 mm 2 mps 719 mmHg 41%
    18:00 +13°C° 0 mm 2 mps 720 mmHg 47%
    19:00 +12°C° 0 mm 1 mps 720 mmHg 52%
    20:00 +10°C° 0 mm 1 mps 721 mmHg 57%
    21:00 +10°C° 0 mm 1 mps 721 mmHg 59%
    22:00 +9°C° 0 mm 1 mps 721 mmHg 61%
    23:00 +9°C° 0 mm 1 mps 722 mmHg 63%

    Day after tomorrow, 23 May, Thursday

    Time Temperature Precipitation Wind Pressure Humidity
    00:00 +8°C° 0 mm 1 mps 721 mmHg 67%
    01:00 +8°C° 0 mm 1 mps 721 mmHg 70%
    02:00 +6°C° 0 mm 0 mps 721 mmHg 73%
    03:00 +6°C° 0 mm 0 mps 720 mmHg 72%
    04:00 +7°C° 0 mm 1 mps 720 mmHg 70%
    05:00 +7°C° 0 mm 1 mps 720 mmHg 69%
    06:00 +8°C° 0 mm 1 mps 720 mmHg 65%
    07:00 +7°C° 0 mm 0 mps 720 mmHg 61%
    08:00 +8°C° 0 mm 0 mps 720 mmHg 56%
    09:00 +12°C° 0 mm 1 mps 720 mmHg 47%
    10:00 +15°C° 0 mm 1 mps 720 mmHg 37%
    11:00 +17°C° 0 mm 2 mps 720 mmHg 28%
    12:00 +19°C° 0 mm 2 mps 719 mmHg 25%
    13:00 +20°C° 0 mm 2 mps 719 mmHg 21%
    14:00 +23°C° 0 mm 2 mps 718 mmHg 18%
    15:00 +21°C° 0 mm 2 mps 717 mmHg 19%
    16:00 +20°C° 0 mm 2 mps 717 mmHg 21%
    17:00 +20°C° 0 mm 2 mps 717 mmHg 23%
    18:00 +17°C° 0 mm 2 mps 716 mmHg 30%
    19:00 +14°C° 0 mm 1 mps 716 mmHg 37%
    20:00 +12°C° 0 mm 1 mps 716 mmHg 44%
    21:00 +11°C° 0 mm 1 mps 716 mmHg 44%
    22:00 +11°C° 0 mm 1 mps 716 mmHg 44%
    23:00 +11°C° 0 mm 1 mps 716 mmHg 44%

    24 May, Friday

    Time Temperature Precipitation Wind Pressure Humidity
    00:00 +10°C° 0 mm 1 mps 716 mmHg 44%
    01:00 +10°C° 0 mm 1 mps 715 mmHg 45%
    02:00 +9°C° 0 mm 1 mps 715 mmHg 46%
    03:00 +9°C° 0 mm 1 mps 715 mmHg 46%
    04:00 +9°C° 0 mm 1 mps 714 mmHg 46%
    05:00 +8°C° 0 mm 1 mps 714 mmHg 46%
    06:00 +9°C° 0 mm 1 mps 714 mmHg 43%
    07:00 +10°C° 0 mm 1 mps 715 mmHg 40%
    08:00 +11°C° 0 mm 1 mps 715 mmHg 37%
    09:00 +14°C° 0 mm 1 mps 715 mmHg 32%
    10:00 +16°C° 0 mm 2 mps 715 mmHg 27%
    11:00 +19°C° 0 mm 2 mps 715 mmHg 22%
    12:00 +20°C° 0 mm 2 mps 714 mmHg 22%
    13:00 +21°C° 0 mm 2 mps 713 mmHg 21%
    14:00 +21°C° 0 mm 3 mps 712 mmHg 20%
    15:00 +21°C° 0 mm 2 mps 712 mmHg 22%
    16:00 +20°C° 0 mm 2 mps 711 mmHg 25%
    17:00 +20°C° 0 mm 1 mps 711 mmHg 27%
    18:00 +18°C° 0 mm 2 mps 711 mmHg 30%
    19:00 +16°C° 0 mm 2 mps 711 mmHg 33%
    20:00 +15°C° 0 mm 2 mps 711 mmHg 36%
    21:00 +14°C° 0 mm 2 mps 711 mmHg 37%
    22:00 +14°C° 0 mm 2 mps 711 mmHg 38%
    23:00 +14°C° 0 mm 2 mps 711 mmHg 39%

    25 May, Saturday

    Time Temperature Precipitation Wind Pressure Humidity
    00:00 +14°C° 0 mm 2 mps 710 mmHg 41%
    01:00 +13°C° 0 mm 2 mps 710 mmHg 44%
    02:00 +13°C° 0 mm 2 mps 709 mmHg 47%
    03:00 +13°C° 0 mm 2 mps 709 mmHg 49%
    04:00 +13°C° 0 mm 2 mps 709 mmHg 52%
    05:00 +12°C° 0 mm 2 mps 708 mmHg 54%
    06:00 +13°C° 0 mm 2 mps 709 mmHg 53%
    07:00 +13°C° 0 mm 2 mps 709 mmHg 52%
    08:00 +13°C° 0 mm 2 mps 709 mmHg 52%
    09:00 +15°C° 0 mm 2 mps 709 mmHg 47%
    10:00 +17°C° 0 mm 3 mps 710 mmHg 43%
    11:00 +19°C° 0 mm 3 mps 710 mmHg 39%
    12:00 +20°C° 0 mm 3 mps 709 mmHg 36%
    13:00 +21°C° 0 mm 3 mps 708 mmHg 34%
    14:00 +22°C° 0 mm 3 mps 707 mmHg 32%
    15:00 +21°C° 0 mm 3 mps 707 mmHg 34%
    16:00 +20°C° 0 mm 2 mps 707 mmHg 36%
    17:00 +20°C° 0 mm 2 mps 708 mmHg 38%
    18:00 +18°C° 0 mm 2 mps 708 mmHg 42%
    19:00 +17°C° 0 mm 2 mps 709 mmHg 47%
    20:00 +14°C° 0 mm 3 mps 710 mmHg 51%
    21:00 +14°C° 0 mm 3 mps 710 mmHg 55%
    22:00 +14°C° 0 mm 3 mps 710 mmHg 58%
    23:00 +13°C° 0 mm 3 mps 711 mmHg 62%

    26 May, Sunday

    Time Temperature Precipitation Wind Pressure Humidity
    00:00 +13°C° 0 mm 3 mps 711 mmHg 63%
    01:00 +13°C° 0 mm 3 mps 711 mmHg 65%
    02:00 +12°C° 0 mm 3 mps 711 mmHg 66%
    03:00 +13°C° 0 mm 2 mps 711 mmHg 68%
    04:00 +13°C° 0 mm 2 mps 711 mmHg 70%
    05:00 +12°C° 0 mm 2 mps 711 mmHg 72%
    06:00 +13°C° 0 mm 2 mps 712 mmHg 70%
    07:00 +13°C° 0 mm 2 mps 712 mmHg 67%
    08:00 +14°C° 0 mm 2 mps 713 mmHg 65%
    09:00 +16°C° 0 mm 2 mps 713 mmHg 57%
    10:00 +18°C° 0 mm 2 mps 714 mmHg 49%
    11:00 +20°C° 0 mm 2 mps 714 mmHg 41%
    12:00 +21°C° 0 mm 3 mps 713 mmHg 39%
    13:00 +21°C° 0 mm 3 mps 713 mmHg 38%
    14:00 +22°C° 0 mm 3 mps 712 mmHg 36%
    15:00 +21°C° 0 mm 3 mps 712 mmHg 39%
    16:00 +21°C° 0 mm 3 mps 712 mmHg 43%
    17:00 +20°C° 0 mm 2 mps 712 mmHg 46%
    18:00 +18°C° 0 mm 2 mps 713 mmHg 56%
    19:00 +16°C° 0 mm 1 mps 713 mmHg 66%
    20:00 +14°C° 0 mm 1 mps 714 mmHg 76%
    21:00 +14°C° 0 mm 1 mps 714 mmHg 78%
    22:00 +14°C° 0 mm 1 mps 714 mmHg 80%
    23:00 +13°C° 0 mm 1 mps 714 mmHg 82%
    Show more